[Date Prev][Date Next][Thread Prev][Thread Next] - [Date Index][Thread Index][Author Index]
2 Line ISS Keps 9-26
- Subject: [sarex] 2 Line ISS Keps 9-26
- From: "Scott Avery WA6LIE" <wa6lie@xxxxxxx>
- Date: Sun, 26 Sep 2004 03:22:30 -0700
- Seal-Send-Time: Sun, 26 Sep 2004 03:22:30 -0700
ISS
1 25544U 98067A 04270.31689815 .00014665 00000-0 13186-3 0 7716
2 25544 51.6361 169.5866 0010001 152.5290 354.3150 15.68450525334205
----
Via the sarex mailing list at AMSAT.ORG courtesy of AMSAT-NA.
To unsubscribe, send "unsubscribe sarex" to Majordomo@amsat.org
AMSAT Home